Regional Weather Roundup
Issued by NWS

Home | Current Version | Previous Version | Text Only | Print | Product List | Glossary On
Versions: 1 2 3 4 5 6 7 8 9 10 11 12 13 14 15 16 17 18 19 20 21 22 23 24 25 26 27 28 29 30 31 32 33 34 35 36 37 38 39 40 41 42 43 44 45 46 47 48 49 50
000
ASUS42 KTBW 060710
RWRFL
FLORIDA REGIONAL WEATHER ROUNDUP
NATIONAL WEATHER SERVICE TAMPA BAY RUSKIN FL
200 AM EST FRI MAR 06 2015

NOTE: "FAIR" INDICATES FEW OR NO CLOUDS BELOW 12,000 FEET WITH NO
SIGNIFICANT WEATHER AND/OR OBSTRUCTIONS TO VISIBILITY.


FLZ001>010-012>015-112-114-115-060800-
PANHANDLE FLORIDA

CITY           SKY/WX    TMP DP  RH WIND       PRES   REMARKS
PENSACOLA      CLOUDY    35  26  69 N13G23    30.35R WCI  26
PENSACOLA NAS  MOCLDY    35  27  72 N12       30.35R WCI  27
MILTON NAS     MOCLDY    33  25  72 N9G22     30.36R WCI  25
CRESTVIEW      CLOUDY    36  27  69 N10G20    30.35S WCI  28
DUKE FIELD     MOCLDY    36  28  72 N15G23    30.32F WCI  27
VALPARAISO     MOCLDY    38  28  69 N17G24    30.32R WCI  28
MARY ESTHER    CLOUDY    38  24  57 N18       30.32S WCI  28
TRI COUNTY     PTSUNNY   39  31  72 N12G18    30.33S WCI  32
PANAMA CITY    FAIR      39  32  76 N12G20    30.28F WCI  32
TYNDALL AFB    CLEAR     41  35  78 N15G22    30.27S WCI  34
APALACHICOLA   MOCLDY    49  39  68 N16       30.24R WCI  43

STATION/POSITION SKY/WX   TEMP    WIND        PRES    WAVE   SWELL
                          AIR SEA DIR/SP/G            HT/PER HT/PER
                          (F)     (DEG/KT/KT) (MB)    (FT/S) (FT/S)
30.1N   87.6W              40 61  360/ 19/ 27 1026.7R   4/ 4
29.2N   88.2W              46 68   20/ 27/ 33 1026.9F
28.7N   86.0W              56 71   20/ 21/ 27 1023.1F   7/ 6
PANAMA CITY BEAC              60   10/ 13/ 17 1025.4R
CAPE SAN BLAS    NOT AVBL
TOWER C                    48     360/ 23/ 25 1022.6F
28.5N   84.5W              61 68  360/ 19/ 23 1021.6R   4/ 5

$$
FLZ011-016>038-118-127-128-134-139-239-060800-
NORTH FLORIDA

CITY           SKY/WX    TMP DP  RH WIND       PRES   REMARKS
MARIANNA       MOCLDY    40  34  79 N15       30.30F WCI  32
TALLAHASSEE    PTCLDY    47  39  74 N15       30.25R WCI  41
CROSS CITY       N/A     60  57  89 N8        30.17S
LAKE CITY      CLOUDY    54  54 100 N13       30.19R FOG
GAINESVILLE    CLOUDY    64  62  93 NW8       30.15F
MAYPORT NAS    LGT RAIN  61  59  93 VRB6      30.17R FOG
JACKSONVILLE   CLOUDY    57  57 100 N12G22    30.17S FOG
JAX NAS        DRIZZLE   63  59  87 NW13      30.17R FOG
JAX CRAIG      LGT RAIN  61  59  93 NW13      30.16S FOG
JAX CECIL      CLOUDY    57  57 100 NW10      30.18R FOG
FERNANDINA BEA CLOUDY    61  59  94 N12       30.16S
ST AUGUSTINE   CLOUDY    63  63 100 N8        30.16S FOG

STATION/POSITION SKY/WX   TEMP    WIND        PRES    WAVE   SWELL
                          AIR SEA DIR/SP/G            HT/PER HT/PER
                          (F)     (DEG/KT/KT) (MB)    (FT/S) (FT/S)
SHELL POINT                48     360/  8/ 12   N/A
KEATON BEACH               53      10/  6/ 10 1022.6S
CEDAR KEY                  67     350/  7/  9 1021.0F
FERNANDINA                    60  350/ 12/ 17 1021.2R
30.7N   81.3W                 55                N/A     2/10   2/11
MAYPORT                       60  350/ 12/ 16 1021.5R
31.4N   80.9W              55 54  340/ 17/ 21 1022.3R   2/10   2/10
ST AUGUSTINE               60     360/  8/  9 1021.4S

$$
FLZ040-043>046-052-053-057-058-063-144-060800-
INTERIOR CENTRAL FLORIDA

CITY           SKY/WX    TMP DP  RH WIND       PRES   REMARKS
OCALA          MOCLDY    70  66  88 CALM      30.13F
THE VILLAGES     N/A     72  70  94 W5        30.03F FOG
LEESBURG       CLOUDY    71  68  90 NW3       30.13F
SANFORD        CLEAR     70  67  90 N3        30.12F
ORLANDO EXEC   CLEAR     72  69  90 SW5       30.12F
ORLANDO INTL   PTCLDY    71  70  96 W5        30.12F
WINTER HAVEN   CLEAR     71  69  93 W7        30.13F
LAKELAND       FOG       68  68 100 W5        30.13F VSB<1/4
BARTOW         FAIR      70 N/A N/A W3        30.13F
OKEECHOBEE     CLEAR     64  64 100 CALM      30.15S FOG

$$
FLZ041-047-054-059-064-141-147-060800-
EAST CENTRAL FLORIDA

CITY           SKY/WX    TMP DP  RH WIND       PRES   REMARKS
DAYTONA BEACH  MOCLDY    69  66  90 W3        30.13F
DELAND         CLOUDY   N/A N/A N/A NW3       30.13F
JFK SPACE CTR  CLEAR     67  65  91 W2        30.10F
CAPE CANAVERAL CLEAR     69  66  91 W5        30.10F
PATRICK AFB    CLEAR     71  69  93 W7        30.11F
MELBOURNE      CLEAR     68  66  93 CALM      30.12F
VERO BEACH     CLEAR     70  66  87 S5        30.13F
FT PIERCE      CLEAR     67  66  97 CALM      30.13F
STUART         CLOUDY    72  64  78 W5        30.14F

STATION/POSITION SKY/WX   TEMP    WIND        PRES    WAVE   SWELL
                          AIR SEA DIR/SP/G            HT/PER HT/PER
                          (F)     (DEG/KT/KT) (MB)    (FT/S) (FT/S)
28.5N   80.2W              71 71  250/  4/  6 1020.3F
28.9N   78.5W              75 75  200/ 12/ 14 1020.0S   4/10   3/10
TRIDENT PIER                  69  260/  3/  4 1020.2F
28.4N   80.5W                 65                N/A     3/11   2/11
27.6N   80.2W                 74                N/A     3/ 9   2/12

$$
FLZ050-056-061-142-242-148-248-149-249-151-251-155-255-
160-260-060800-
WEST CENTRAL FLORIDA

CITY           SKY/WX    TMP DP  RH WIND       PRES   REMARKS
CRYSTAL RIVER  PTSUNNY   68  64  88 W3        30.14S
INVERNESS      CLOUDY    70  68  94 CALM      30.13F
BROOKSVILLE    CLOUDY    70  69  97 W8        30.13F FOG
ZEPHYRHILLS    FOG       66  66 100 CALM      30.14F VSB 3/4
CLEARWATER     FOG       68  68 100 W3        30.13S VSB 1/2
TAMPA INTL     CLOUDY    70  68  93 W6        30.13F
TAMPA EXEC     MOCLDY    72  68  88 CALM      30.14S FOG
PLANT CITY     CLOUDY   N/A N/A N/A W5        30.14F FOG
MACDILL AFB    CLOUDY    68  68 100 W2        30.13F FOG
PETER O KNIGHT CLOUDY    72  70  94 CALM      30.14S FOG
ST PETERSBURG  FOG       68  67  96 W5        30.11F VSB 1
SARASOTA       CLOUDY    68  68 100 CALM      30.12F FOG
VENICE         FOG       70  70 100 W6        30.13F VSB<1/4

STATION/POSITION SKY/WX   TEMP    WIND        PRES    WAVE   SWELL
                          AIR SEA DIR/SP/G            HT/PER HT/PER
                          (F)     (DEG/KT/KT) (MB)    (FT/S) (FT/S)
CEDAR KEY                  67     350/  7/  9 1021.0F
28.5N   84.5W              61 68  360/ 19/ 23 1021.6R   4/ 5
27.3N   84.3W                 72                N/A     2/ 6
CLEARWATER BEACH              67  230/  4/  5 1020.4F
MIDDLE TAMPA BAY                  240/  4/  5 1020.5F
VENICE                     70 71  290/  5/  6 1019.6F

$$
FLZ066-069-070-075>078-162-262-165-265-060800-
SOUTHWEST FLORIDA AND KEYS

CITY           SKY/WX    TMP DP  RH WIND       PRES   REMARKS
PUNTA GORDA    FOG       64  64 100 SE5       30.14F VSB 1/4
FT MYERS       CLEAR     69  68  96 CALM      30.12F
SOUTHWEST INTL MOCLDY    66  65  96 CALM      30.13F FOG
NAPLES         MOCLDY    69  69 100 SE3       30.13S
MARCO ISLAND   MOSUNNY   70  66  88 CALM      30.13F
IMMOKALEE      CLOUDY   N/A N/A N/A CALM      30.14F VSB 0
MARATHON       PTCLDY    75  71  87 E5        30.12F
KEY WEST NAS   PTCLDY    74  70  87 E9        30.12F
KEY WEST INTL  CLEAR     75  72  90 E10       30.12F

STATION/POSITION SKY/WX   TEMP    WIND        PRES    WAVE   SWELL
                          AIR SEA DIR/SP/G            HT/PER HT/PER
                          (F)     (DEG/KT/KT) (MB)    (FT/S) (FT/S)
VENICE                     70 71  290/  5/  6 1019.6F
NAPLES                        72  110/  3/  3 1020.0F
26.0N   85.6W              76 77  240/  4/  4 1019.9F   2/ 5   2/ 5
DRY TORTUGAS               75      90/  3/  4 1020.1F
NW FL BAY                  77     110/  6/  7 1021.1F
SAND KEY                   75     120/ 11/ 12 1019.8F
SOMBRERO KEY               75     110/  8/  8 1020.6F
LONG KEY                   76 78  120/  8/  9 1021.4F
MOLASSES REEF              75 76   80/  4/  5 1020.2F

$$
FLZ067-068-071>074-168-172>174-060800-
SOUTHEAST FLORIDA

CITY           SKY/WX    TMP DP  RH WIND       PRES   REMARKS
W PALM BEACH   MOCLDY    75  70  84 SW5       30.12F
FT LAUDER-EXEC MOCLDY    73  70  90 CALM      30.13F
FT LAUDERDALE  MOCLDY    74  71  91 SE5       30.12F
POMPANO BEACH  MOCLDY    74  68  81 CALM      30.13F
PEMBROKE PINES PTCLDY    72  68  87 CALM      30.14F
OPA LOCKA      PTCLDY    71  68  90 CALM      30.14F
MIAMI          CLEAR     72  69  90 CALM      30.13F
WEST KENDALL   CLEAR     65  65 100 CALM      30.14F
HOMESTEAD      CLEAR     66  65  97 CALM      30.13F

STATION/POSITION SKY/WX   TEMP    WIND        PRES    WAVE   SWELL
                          AIR SEA DIR/SP/G            HT/PER HT/PER
                          (F)     (DEG/KT/KT) (MB)    (FT/S) (FT/S)
PORT EVERGLADES            74     190/  2/  2 1020.3
VIRGINIA KEY                  77  140/  3/  4 1020.1F
LAKE WORTH                    75  180/  4/  4 1020.0F
SETTLEMENT POINT           76     180/  6/  8 1021.1F

$$




USA.gov is the U.S. government's official web portal to all federal, state and local government web resources and services.